User: anonymous   Login
Location: Nairn
(57.5833°N, 3.8667°W)
Time: 02:52:14
(UTC+00:00)
Language:

Meteor 1-29 - Orbit

View from above orbital plane
View from above orbital plane
View from above satellite
View from above satellite

Ground track
Ground track

The orbit data is extracted from the following two-line orbital elements,

1 11251U 79005A   20302.52698593 +.00002170 +00000-0 +58274-4 0  9995
2 11251 097.6577 231.0794 0015775 014.2748 345.8939 15.39033943829000
Epoch (UTC): 28 October 2020 12:38:51
Eccentricity: 0.0015775
inclination: 97.6577°
perigee height: 438 km
apogee height: 460 km
right ascension of ascending node: 231.0794°
argument of perigee: 14.2748°
revolutions per day: 15.39033943
mean anomaly at epoch: 345.8939°
orbit number at epoch: 82900

The dashed part of the orbit path shows where the satellite is in the earth's shadow,  

DLR